FJI855V MDPC-KSFO

Flight info

Callsign FJI855V
Flight time N/A
Altitude 38000
Route MALVN2T MALVN Y261 MADIZ DCT RSW DCT BAGGS Y290 BACCA/N0487F400 Q102 LEV J86 IAH J87 TNV DCT BGS DCT CME DCT ZUN DCT MMM DCT RUSME DYAMD5
Aircraft A359/H-SDE2E3GHIJ3J4J5LM1ORWXY/LB1D1

Departure

Time 2026-04-28 14:23
Airport Punta Cana International Airport (MDPC)

Arrival

Time N/A
Airport San Francisco International Airport (KSFO)
Time Latitude Longitude Altitude Speed Heading
2026-04-28 14:15 18.56299 -68.37000 52 ft 2 kts
2026-04-28 14:15 18.56290 -68.37000 52 ft 0 kts 356°
2026-04-28 14:15 18.56286 -68.37000 52 ft 0 kts 355°
2026-04-28 14:17 18.56288 -68.37000 52 ft 1 kts 355°
2026-04-28 14:17 18.56303 -68.37001 52 ft 3 kts 355°
2026-04-28 14:17 18.56335 -68.37003 52 ft 5 kts 356°
2026-04-28 14:18 18.56388 -68.37007 52 ft 9 kts 356°
2026-04-28 14:18 18.56465 -68.37017 52 ft 11 kts 339°
2026-04-28 14:18 18.56497 -68.37102 52 ft 15 kts 269°
2026-04-28 14:18 18.56488 -68.37224 53 ft 17 kts 265°
2026-04-28 14:19 18.56476 -68.37358 55 ft 19 kts 264°
2026-04-28 14:19 18.56461 -68.37511 56 ft 21 kts 265°
2026-04-28 14:19 18.56448 -68.37667 58 ft 21 kts 265°
2026-04-28 14:19 18.56468 -68.37772 56 ft 13 kts 330°
2026-04-28 14:20 18.56565 -68.37790 56 ft 14 kts 359°
2026-04-28 14:20 18.56668 -68.37813 55 ft 16 kts 328°
2026-04-28 14:20 18.56731 -68.37912 54 ft 17 kts 292°
2026-04-28 14:20 18.56782 -68.38036 53 ft 19 kts 294°
2026-04-28 14:21 18.56841 -68.38170 52 ft 20 kts 294°
2026-04-28 14:21 18.56936 -68.38264 52 ft 19 kts 351°
2026-04-28 14:21 18.57021 -68.38286 52 ft 5 kts 12°
2026-04-28 14:21 18.57048 -68.38247 52 ft 7 kts 78°
2026-04-28 14:22 18.57053 -68.38226 52 ft 0 kts 75°
2026-04-28 14:22 18.57053 -68.38225 52 ft 2 kts 75°
2026-04-28 14:22 18.57114 -68.38001 52 ft 64 kts 74°
2026-04-28 14:23 18.57318 -68.37266 49 ft 139 kts 75°
2026-04-28 14:23 18.57637 -68.36087 142 ft 188 kts 74°
2026-04-28 14:23 18.57937 -68.34726 798 ft 193 kts 86°
2026-04-28 14:23 18.57668 -68.33292 1399 ft 211 kts 107°
2026-04-28 14:24 18.57366 -68.31743 2115 ft 228 kts 94°
2026-04-28 14:24 18.57216 -68.30034 2886 ft 246 kts 105°
2026-04-28 14:24 18.56314 -68.28462 3735 ft 262 kts 135°
2026-04-28 14:24 18.54895 -68.27169 4390 ft 286 kts 142°
2026-04-28 14:25 18.53021 -68.26189 4771 ft 321 kts 168°
2026-04-28 14:25 18.50644 -68.26222 4932 ft 362 kts 193°
2026-04-28 14:25 18.48316 -68.27397 5604 ft 381 kts 213°
2026-04-28 14:25 18.46211 -68.28871 7463 ft 363 kts 213°
2026-04-28 14:26 18.44167 -68.30290 9174 ft 346 kts 213°
2026-04-28 14:26 18.42266 -68.31603 10794 ft 327 kts 213°
2026-04-28 14:26 18.40440 -68.32861 12359 ft 305 kts 213°
2026-04-28 14:26 18.38790 -68.34217 13090 ft 311 kts 229°
2026-04-28 14:27 18.37691 -68.36330 12818 ft 352 kts 254°
2026-04-28 14:27 18.37492 -68.39084 11861 ft 411 kts 277°
2026-04-28 14:27 18.38371 -68.41966 12554 ft 414 kts 290°
2026-04-28 14:27 18.39432 -68.44647 14107 ft 395 kts 292°
2026-04-28 14:28 18.40474 -68.47279 14952 ft 393 kts 290°
2026-04-28 14:28 18.41507 -68.50008 15112 ft 407 kts 290°
2026-04-28 14:28 18.42545 -68.52772 15112 ft 409 kts 290°
2026-04-28 14:28 18.43648 -68.55557 15104 ft 411 kts 294°
2026-04-28 14:29 18.44956 -68.58244 15197 ft 415 kts 297°
2026-04-28 14:29 18.46322 -68.60908 15662 ft 418 kts 297°
2026-04-28 14:29 18.47724 -68.63612 16284 ft 418 kts 297°
2026-04-28 14:29 18.49117 -68.66288 16806 ft 420 kts 297°
2026-04-28 14:30 18.50524 -68.68998 17302 ft 422 kts 297°
2026-04-28 14:30 18.51927 -68.71700 17780 ft 424 kts 297°
2026-04-28 14:30 18.53342 -68.74424 18265 ft 426 kts 296°
2026-04-28 14:30 18.54697 -68.77215 18715 ft 429 kts 294°
2026-04-28 14:31 18.56013 -68.80023 19176 ft 430 kts 294°
2026-04-28 14:31 18.57334 -68.82848 19624 ft 433 kts 294°
2026-04-28 14:31 18.58692 -68.85736 20069 ft 435 kts 294°
2026-04-28 14:31 18.60028 -68.88566 20515 ft 437 kts 294°
2026-04-28 14:32 18.61397 -68.91459 20940 ft 439 kts 294°
2026-04-28 14:32 18.62766 -68.94347 21349 ft 441 kts 294°
2026-04-28 14:32 18.64139 -68.97239 21751 ft 443 kts 294°
2026-04-28 14:32 18.65522 -69.00150 22151 ft 445 kts 294°
2026-04-28 14:33 18.66906 -69.03062 22541 ft 447 kts 293°
2026-04-28 14:33 18.68288 -69.05974 22912 ft 449 kts 293°
2026-04-28 14:33 18.69686 -69.08919 23303 ft 450 kts 293°
2026-04-28 14:33 18.71098 -69.11893 23701 ft 451 kts 293°
2026-04-28 14:34 18.73901 -69.17806 24405 ft 455 kts 293°
2026-04-28 14:34 18.75318 -69.20795 24762 ft 456 kts 293°
2026-04-28 14:34 18.76745 -69.23810 25106 ft 457 kts 293°
2026-04-28 14:35 18.78166 -69.26809 25418 ft 459 kts 292°
2026-04-28 14:35 18.79595 -69.29829 25744 ft 460 kts 292°
2026-04-28 14:35 18.81021 -69.32843 26077 ft 460 kts 292°
2026-04-28 14:35 18.82442 -69.35849 26392 ft 461 kts 292°
2026-04-28 14:36 18.83860 -69.38850 26664 ft 462 kts 292°
2026-04-28 14:36 18.85313 -69.41926 26925 ft 464 kts 292°
2026-04-28 14:36 18.86752 -69.44975 27174 ft 465 kts 292°
2026-04-28 14:36 18.88190 -69.48019 27443 ft 466 kts 292°
2026-04-28 14:37 18.89626 -69.51067 27725 ft 467 kts 292°
2026-04-28 14:37 18.91080 -69.54154 27965 ft 468 kts 292°
2026-04-28 14:37 18.92527 -69.57224 28199 ft 469 kts 292°
2026-04-28 14:37 18.93973 -69.60298 28457 ft 469 kts 292°
2026-04-28 14:38 18.95432 -69.63397 28716 ft 470 kts 291°
2026-04-28 14:38 18.96873 -69.66460 29087 ft 468 kts 291°
2026-04-28 14:38 18.98299 -69.69507 29515 ft 465 kts 291°
2026-04-28 14:38 18.99726 -69.72555 29905 ft 464 kts 291°
2026-04-28 14:39 19.01164 -69.75627 30259 ft 463 kts 291°
2026-04-28 14:39 19.02586 -69.78663 30591 ft 463 kts 291°
2026-04-28 14:39 19.04007 -69.81694 30917 ft 462 kts 291°
2026-04-28 14:39 19.05427 -69.84727 31251 ft 461 kts 291°
2026-04-28 14:40 19.06840 -69.87743 31593 ft 460 kts 290°
2026-04-28 14:40 19.07800 -69.89790 31817 ft 460 kts 290°
2026-04-28 14:40 19.09667 -69.93778 32247 ft 458 kts 290°
2026-04-28 14:40 19.11093 -69.96812 32576 ft 457 kts 290°
2026-04-28 14:41 19.12509 -69.99803 32854 ft 457 kts 290°
2026-04-28 14:41 19.13927 -70.02805 33141 ft 456 kts 290°
2026-04-28 14:41 19.15341 -70.05814 33466 ft 455 kts 290°
2026-04-28 14:41 19.16735 -70.08788 33748 ft 454 kts 290°
2026-04-28 14:42 19.18131 -70.11774 34020 ft 453 kts 290°
2026-04-28 14:42 19.19528 -70.14769 34310 ft 452 kts 290°
2026-04-28 14:42 19.20910 -70.17731 34613 ft 451 kts 290°
2026-04-28 14:42 19.22281 -70.20671 34852 ft 450 kts 290°
2026-04-28 14:43 19.23673 -70.23661 35059 ft 450 kts 291°
2026-04-28 14:43 19.25054 -70.26626 35282 ft 450 kts 290°
2026-04-28 14:43 19.26431 -70.29587 35536 ft 448 kts 291°
2026-04-28 14:43 19.27798 -70.32523 35769 ft 447 kts 291°
2026-04-28 14:44 19.29166 -70.35468 35967 ft 447 kts 291°
2026-04-28 14:44 19.30537 -70.38415 36146 ft 447 kts 291°
2026-04-28 14:44 19.31911 -70.41372 36301 ft 447 kts 291°
2026-04-28 14:44 19.33279 -70.44321 36427 ft 448 kts 291°
2026-04-28 14:45 19.34638 -70.47250 36551 ft 448 kts 291°
2026-04-28 14:45 19.36015 -70.50206 36660 ft 449 kts 292°
2026-04-28 14:45 19.37541 -70.53116 36748 ft 453 kts 296°
2026-04-28 14:46 19.41175 -70.58642 36948 ft 460 kts 303°
2026-04-28 14:46 19.43254 -70.61199 37072 ft 463 kts 307°
2026-04-28 14:46 19.45511 -70.63622 37192 ft 466 kts 310°
2026-04-28 14:47 19.50562 -70.68052 37353 ft 473 kts 316°
2026-04-28 14:47 19.53180 -70.70111 37514 ft 472 kts 317°
2026-04-28 14:47 19.55853 -70.72193 37723 ft 471 kts 317°
2026-04-28 14:47 19.58450 -70.74213 37954 ft 469 kts 317°
2026-04-28 14:48 19.61081 -70.76257 38015 ft 470 kts 317°
2026-04-28 14:48 19.66397 -70.80393 38081 ft 471 kts 317°
2026-04-28 14:49 19.71673 -70.84501 38098 ft 473 kts 317°
2026-04-28 14:49 19.76983 -70.88638 38091 ft 472 kts 317°
2026-04-28 14:50 19.82280 -70.92770 38091 ft 472 kts 317°
2026-04-28 14:50 19.87542 -70.96877 38080 ft 472 kts 317°
2026-04-28 14:51 19.92862 -71.01032 38070 ft 473 kts 317°
2026-04-28 14:51 19.98138 -71.05158 38060 ft 475 kts 317°
2026-04-28 14:52 20.03469 -71.09328 38055 ft 474 kts 317°
2026-04-28 14:52 20.08786 -71.13491 38057 ft 474 kts 317°
2026-04-28 14:53 20.14113 -71.17651 38050 ft 476 kts 317°
2026-04-28 14:53 20.19447 -71.21812 38055 ft 476 kts 317°
2026-04-28 14:54 20.24773 -71.25987 38058 ft 476 kts 317°
2026-04-28 14:54 20.30121 -71.30190 38063 ft 475 kts 317°
2026-04-28 14:55 20.35362 -71.34461 38063 ft 472 kts 314°
2026-04-28 14:55 20.40159 -71.39156 38055 ft 467 kts 308°
2026-04-28 14:56 20.44455 -71.44271 38066 ft 463 kts 303°
2026-04-28 14:56 20.48237 -71.49755 38060 ft 459 kts 299°
2026-04-28 14:57 20.51801 -71.55408 38059 ft 459 kts 298°
2026-04-28 14:57 20.55360 -71.61073 38062 ft 459 kts 298°
2026-04-28 14:58 20.58888 -71.66698 38069 ft 458 kts 298°
2026-04-28 14:58 20.62421 -71.72355 38064 ft 457 kts 298°
2026-04-28 14:59 20.65953 -71.78004 38064 ft 456 kts 298°
2026-04-28 14:59 20.69471 -71.83624 38072 ft 456 kts 298°
2026-04-28 15:00 20.72982 -71.89238 38063 ft 456 kts 298°
2026-04-28 15:00 20.76500 -71.94867 38071 ft 456 kts 298°
2026-04-28 15:01 20.80009 -72.00486 38065 ft 456 kts 298°
2026-04-28 15:01 20.83511 -72.06098 38074 ft 455 kts 298°
2026-04-28 15:02 20.87038 -72.11758 38073 ft 455 kts 298°
2026-04-28 15:02 20.90525 -72.17357 38072 ft 456 kts 298°
2026-04-28 15:03 20.94056 -72.23033 38074 ft 455 kts 298°
2026-04-28 15:03 20.97541 -72.28638 38075 ft 455 kts 298°
2026-04-28 15:04 21.01048 -72.34289 38077 ft 455 kts 298°
2026-04-28 15:04 21.04543 -72.39922 38080 ft 455 kts 299°
2026-04-28 15:05 21.08042 -72.45564 38082 ft 455 kts 299°
2026-04-28 15:05 21.11535 -72.51186 38077 ft 455 kts 299°
2026-04-28 15:06 21.15049 -72.56821 38080 ft 456 kts 299°
2026-04-28 15:06 21.18556 -72.62491 38079 ft 455 kts 299°
2026-04-28 15:07 21.22032 -72.68135 38078 ft 455 kts 298°
2026-04-28 15:07 21.25483 -72.73765 38081 ft 453 kts 298°
2026-04-28 15:08 21.28954 -72.79417 38077 ft 454 kts 298°
2026-04-28 15:08 21.32420 -72.85060 38079 ft 454 kts 298°
2026-04-28 15:09 21.35887 -72.90711 38076 ft 453 kts 298°
2026-04-28 15:09 21.39334 -72.96330 38080 ft 452 kts 298°
2026-04-28 15:10 21.42778 -73.01951 38075 ft 452 kts 298°
2026-04-28 15:10 21.46222 -73.07574 38079 ft 452 kts 298°
2026-04-28 15:11 21.49679 -73.13226 38074 ft 452 kts 298°
2026-04-28 15:11 21.53141 -73.18893 38074 ft 452 kts 298°
2026-04-28 15:12 21.56568 -73.24506 38076 ft 453 kts 298°
2026-04-28 15:12 21.60010 -73.30153 38077 ft 452 kts 298°
2026-04-28 15:13 21.63468 -73.35832 38075 ft 453 kts 299°
2026-04-28 15:13 21.66893 -73.41461 38079 ft 452 kts 299°
2026-04-28 15:14 21.70337 -73.47127 38076 ft 454 kts 299°
2026-04-28 15:14 21.73817 -73.52858 38073 ft 456 kts 299°
2026-04-28 15:15 21.77296 -73.58594 38076 ft 458 kts 299°
2026-04-28 15:15 21.80791 -73.64360 38074 ft 461 kts 299°
2026-04-28 15:16 21.84285 -73.70153 38075 ft 462 kts 298°
2026-04-28 15:16 21.87791 -73.75977 38077 ft 464 kts 298°
2026-04-28 15:17 21.91310 -73.81815 38071 ft 466 kts 299°
2026-04-28 15:17 21.94863 -73.87704 38075 ft 467 kts 298°
2026-04-28 15:18 21.98397 -73.93570 38077 ft 468 kts 298°
2026-04-28 15:18 22.01938 -73.99451 38075 ft 469 kts 299°
2026-04-28 15:19 22.05492 -74.05363 38079 ft 470 kts 299°
2026-04-28 15:19 22.09055 -74.11294 38089 ft 470 kts 299°
2026-04-28 15:20 22.12637 -74.17230 38095 ft 471 kts 299°
2026-04-28 15:20 22.16189 -74.23106 38091 ft 471 kts 299°
2026-04-28 15:21 22.19755 -74.29037 38094 ft 471 kts 299°
2026-04-28 15:21 22.23321 -74.34991 38093 ft 472 kts 299°
2026-04-28 15:22 22.26887 -74.40955 38098 ft 471 kts 299°
2026-04-28 15:22 22.30427 -74.46886 38096 ft 471 kts 299°
2026-04-28 15:23 22.33962 -74.52814 38096 ft 470 kts 299°
2026-04-28 15:23 22.37497 -74.58752 38098 ft 470 kts 299°
2026-04-28 15:24 22.41040 -74.64708 38095 ft 470 kts 299°
2026-04-28 15:24 22.44560 -74.70656 38097 ft 470 kts 298°
2026-04-28 15:25 22.48074 -74.76601 38096 ft 470 kts 299°
2026-04-28 15:25 22.51593 -74.82544 38098 ft 470 kts 299°
2026-04-28 15:26 22.55117 -74.88503 38096 ft 471 kts 299°
2026-04-28 15:26 22.58615 -74.94421 38098 ft 471 kts 299°
2026-04-28 15:27 22.62141 -75.00389 38096 ft 471 kts 299°
2026-04-28 15:27 22.65709 -75.06437 38094 ft 471 kts 299°
2026-04-28 15:28 22.69223 -75.12398 38093 ft 471 kts 299°
2026-04-28 15:28 22.72771 -75.18426 38098 ft 471 kts 299°
2026-04-28 15:29 22.76308 -75.24440 38095 ft 471 kts 299°
2026-04-28 15:29 22.79800 -75.30388 38096 ft 471 kts 299°
2026-04-28 15:30 22.83335 -75.36412 38097 ft 471 kts 299°
2026-04-28 15:30 22.86859 -75.42426 38095 ft 471 kts 299°
2026-04-28 15:31 22.90350 -75.48388 38092 ft 471 kts 299°
2026-04-28 15:31 22.93862 -75.54395 38098 ft 471 kts 299°
2026-04-28 15:32 22.97387 -75.60434 38095 ft 471 kts 300°
2026-04-28 15:32 23.00897 -75.66454 38096 ft 471 kts 299°
2026-04-28 15:33 23.04369 -75.72443 38093 ft 472 kts 299°
2026-04-28 15:33 23.07872 -75.78477 38092 ft 472 kts 299°
2026-04-28 15:34 23.11396 -75.84536 38096 ft 472 kts 300°
2026-04-28 15:34 23.14915 -75.90544 38095 ft 473 kts 300°
2026-04-28 15:35 23.18416 -75.96552 38098 ft 473 kts 299°
2026-04-28 15:35 23.23676 -76.05621 38101 ft 473 kts 299°
2026-04-28 15:36 23.27179 -76.11681 38102 ft 473 kts 300°
2026-04-28 15:36 23.30690 -76.17756 38102 ft 473 kts 300°
2026-04-28 15:37 23.34199 -76.23834 38104 ft 474 kts 299°
2026-04-28 15:37 23.37701 -76.29916 38105 ft 473 kts 299°
2026-04-28 15:38 23.41177 -76.35957 38106 ft 473 kts 300°
2026-04-28 15:38 23.44678 -76.42049 38101 ft 473 kts 300°
2026-04-28 15:39 23.48151 -76.48102 38106 ft 474 kts 300°
2026-04-28 15:39 23.51647 -76.54196 38106 ft 474 kts 300°
2026-04-28 15:40 23.55140 -76.60297 38106 ft 474 kts 300°
2026-04-28 15:40 23.58604 -76.66356 38111 ft 474 kts 300°
2026-04-28 15:41 23.62079 -76.72467 38111 ft 475 kts 300°
2026-04-28 15:41 23.65562 -76.78590 38105 ft 476 kts 300°
2026-04-28 15:42 23.69057 -76.84732 38111 ft 476 kts 300°
2026-04-28 15:42 23.72552 -76.90869 38110 ft 476 kts 300°
2026-04-28 15:43 23.76037 -76.96998 38107 ft 476 kts 300°
2026-04-28 15:43 23.79518 -77.03132 38109 ft 476 kts 300°
2026-04-28 15:44 23.82997 -77.09266 38109 ft 476 kts 300°
2026-04-28 15:44 23.86453 -77.15367 38114 ft 475 kts 300°
2026-04-28 15:45 23.89940 -77.21529 38109 ft 475 kts 300°
2026-04-28 15:45 23.93409 -77.27666 38113 ft 476 kts 300°
2026-04-28 15:46 23.96891 -77.33837 38110 ft 476 kts 300°
2026-04-28 15:46 24.00352 -77.39975 38108 ft 477 kts 300°
2026-04-28 15:47 24.03830 -77.46151 38110 ft 477 kts 300°
2026-04-28 15:47 24.07319 -77.52352 38106 ft 477 kts 300°
2026-04-28 15:48 24.10772 -77.58498 38107 ft 477 kts 301°
2026-04-28 15:48 24.14294 -77.64713 38107 ft 476 kts 300°
2026-04-28 15:49 24.17762 -77.70899 38108 ft 475 kts 300°
2026-04-28 15:49 24.21217 -77.77083 38104 ft 475 kts 300°
2026-04-28 15:50 24.24679 -77.83276 38105 ft 475 kts 300°
2026-04-28 15:50 24.28164 -77.89365 38106 ft 475 kts 302°
2026-04-28 15:51 24.31814 -77.95447 38103 ft 475 kts 302°
2026-04-28 15:51 24.35439 -78.01474 38101 ft 475 kts 302°
2026-04-28 15:52 24.39082 -78.07535 38101 ft 476 kts 302°
2026-04-28 15:52 24.42726 -78.13605 38112 ft 476 kts 302°
2026-04-28 15:53 24.46365 -78.19673 38111 ft 476 kts 302°
2026-04-28 15:53 24.49986 -78.25719 38108 ft 476 kts 302°
2026-04-28 15:54 24.53611 -78.31781 38116 ft 475 kts 302°
2026-04-28 15:54 24.57224 -78.37829 38115 ft 475 kts 302°
2026-04-28 15:55 24.60862 -78.43926 38110 ft 475 kts 302°
2026-04-28 15:55 24.64472 -78.49985 38116 ft 475 kts 302°
2026-04-28 15:56 24.68088 -78.56063 38116 ft 476 kts 302°
2026-04-28 15:56 24.71694 -78.62129 38121 ft 476 kts 302°
2026-04-28 15:57 24.75333 -78.68267 38121 ft 477 kts 302°
2026-04-28 15:57 24.78936 -78.74376 38119 ft 477 kts 302°
2026-04-28 15:58 24.82557 -78.80508 38107 ft 477 kts 302°
2026-04-28 15:58 24.86169 -78.86623 38125 ft 477 kts 302°
2026-04-28 15:59 24.89808 -78.92786 38116 ft 476 kts 302°
2026-04-28 15:59 24.93410 -78.98893 38118 ft 476 kts 302°
2026-04-28 16:00 24.97018 -79.05016 38115 ft 477 kts 302°
2026-04-28 16:00 25.00650 -79.11192 38122 ft 477 kts 302°
2026-04-28 16:01 25.04250 -79.17320 38116 ft 478 kts 302°
2026-04-28 16:01 25.07863 -79.23480 38116 ft 477 kts 302°
2026-04-28 16:02 25.11482 -79.29642 38121 ft 478 kts 302°
2026-04-28 16:02 25.15109 -79.35782 38115 ft 477 kts 302°
2026-04-28 16:03 25.18719 -79.41924 38119 ft 477 kts 302°
2026-04-28 16:03 25.22300 -79.48045 38119 ft 477 kts 302°
2026-04-28 16:04 25.25897 -79.54211 38118 ft 477 kts 302°
2026-04-28 16:04 25.29487 -79.60376 38118 ft 476 kts 302°
2026-04-28 16:05 25.33056 -79.66515 38122 ft 476 kts 302°
2026-04-28 16:05 25.36617 -79.72678 38121 ft 475 kts 302°
2026-04-28 16:06 25.40171 -79.78825 38118 ft 476 kts 302°
2026-04-28 16:06 25.43740 -79.84996 38119 ft 476 kts 302°
2026-04-28 16:07 25.47311 -79.91170 38120 ft 475 kts 302°
2026-04-28 16:08 25.52653 -80.00423 38119 ft 476 kts 302°
2026-04-28 16:08 25.56221 -80.06610 38122 ft 476 kts 302°
2026-04-28 16:09 25.61535 -80.15842 38125 ft 475 kts 302°
2026-04-28 16:10 25.66857 -80.25105 38127 ft 474 kts 302°
2026-04-28 16:10 25.72169 -80.34369 38127 ft 475 kts 302°
2026-04-28 16:11 25.79219 -80.46697 38127 ft 475 kts 302°
2026-04-28 16:12 25.84541 -80.56020 38126 ft 474 kts 302°
2026-04-28 16:13 25.87450 -80.61124 38123 ft 474 kts 302°
2026-04-28 16:14 25.88297 -80.62610 38122 ft 475 kts 302°
2026-04-28 16:15 25.95320 -80.75009 38109 ft 474 kts 302°
2026-04-28 16:15 25.98844 -80.81233 38105 ft 474 kts 302°
2026-04-28 16:16 26.04123 -80.90556 38102 ft 475 kts 302°
2026-04-28 16:17 26.09367 -80.99834 38104 ft 475 kts 302°
2026-04-28 16:17 26.12884 -81.06029 38105 ft 475 kts 302°
2026-04-28 16:18 26.16423 -81.12260 38115 ft 474 kts 302°
2026-04-28 16:18 26.19921 -81.18456 38122 ft 474 kts 302°
2026-04-28 16:19 26.23418 -81.24671 38117 ft 474 kts 302°
2026-04-28 16:19 26.26900 -81.30872 38121 ft 474 kts 302°
2026-04-28 16:20 26.30383 -81.37083 38121 ft 474 kts 302°
2026-04-28 16:20 26.33880 -81.43331 38125 ft 474 kts 302°
2026-04-28 16:21 26.37347 -81.49530 38124 ft 474 kts 302°
2026-04-28 16:21 26.40819 -81.55751 38129 ft 473 kts 302°
2026-04-28 16:22 26.44291 -81.61973 38134 ft 473 kts 302°
2026-04-28 16:22 26.47750 -81.68190 38135 ft 473 kts 301°
2026-04-28 16:23 26.51222 -81.74453 38133 ft 473 kts 301°
2026-04-28 16:23 26.54694 -81.80661 38138 ft 473 kts 302°
2026-04-28 16:24 26.58218 -81.86822 38140 ft 472 kts 302°
2026-04-28 16:24 26.61758 -81.92996 38137 ft 472 kts 302°
2026-04-28 16:25 26.65287 -81.99161 38136 ft 472 kts 302°
2026-04-28 16:25 26.68817 -82.05343 38139 ft 472 kts 302°
2026-04-28 16:26 26.72334 -82.11509 38143 ft 471 kts 303°
2026-04-28 16:26 26.75840 -82.17666 38142 ft 470 kts 302°
2026-04-28 16:27 26.79342 -82.23823 38134 ft 470 kts 303°
2026-04-28 16:28 26.84596 -82.33068 38131 ft 469 kts 303°
2026-04-28 16:28 26.88079 -82.39211 38134 ft 470 kts 303°
2026-04-28 16:29 26.93319 -82.48470 38145 ft 469 kts 303°
2026-04-28 16:30 26.98551 -82.57725 38146 ft 468 kts 303°
2026-04-28 16:30 27.02021 -82.63869 38140 ft 467 kts 303°
2026-04-28 16:31 27.05485 -82.70028 38147 ft 467 kts 302°
2026-04-28 16:31 27.08833 -82.76284 38142 ft 468 kts 299°
2026-04-28 16:32 27.11666 -82.82799 38149 ft 468 kts 294°
2026-04-28 16:32 27.14942 -82.93143 38146 ft 470 kts 287°
2026-04-28 16:33 27.16215 -82.99080 38151 ft 471 kts 285°
2026-04-28 16:33 27.17795 -83.07088 38141 ft 471 kts 284°
2026-04-28 16:34 27.18246 -83.09414 38146 ft 471 kts 284°
2026-04-28 16:34 27.19555 -83.16341 38142 ft 471 kts 284°
2026-04-28 16:35 27.20566 -83.21713 38141 ft 472 kts 284°
2026-04-28 16:35 27.21825 -83.28386 38144 ft 471 kts 284°
2026-04-28 16:36 27.23185 -83.35603 38142 ft 471 kts 284°
2026-04-28 16:36 27.24542 -83.42818 38139 ft 471 kts 284°
2026-04-28 16:37 27.25896 -83.50030 38140 ft 471 kts 284°
2026-04-28 16:38 27.26757 -83.54629 38140 ft 471 kts 284°
2026-04-28 16:39 27.27009 -83.55957 38147 ft 470 kts 285°
2026-04-28 16:39 27.28361 -83.63023 38151 ft 470 kts 284°
2026-04-28 16:40 27.29685 -83.70235 38151 ft 471 kts 284°
2026-04-28 16:40 27.31006 -83.77428 38158 ft 471 kts 284°
2026-04-28 16:41 27.32334 -83.84634 38157 ft 471 kts 284°
2026-04-28 16:41 27.33662 -83.91848 38148 ft 471 kts 284°
2026-04-28 16:42 27.34984 -83.99030 38155 ft 470 kts 284°
2026-04-28 16:42 27.36310 -84.06254 38164 ft 471 kts 284°
2026-04-28 16:43 27.37625 -84.13435 38157 ft 470 kts 284°
2026-04-28 16:43 27.38937 -84.20618 38155 ft 470 kts 284°
2026-04-28 16:44 27.40250 -84.27811 38153 ft 470 kts 284°
2026-04-28 16:44 27.41558 -84.35014 38148 ft 471 kts 284°
2026-04-28 16:45 27.42853 -84.42210 38152 ft 470 kts 284°
2026-04-28 16:45 27.44143 -84.49421 38149 ft 470 kts 284°
2026-04-28 16:46 27.45442 -84.56660 38144 ft 470 kts 284°
2026-04-28 16:46 27.46739 -84.63898 38149 ft 470 kts 284°
2026-04-28 16:47 27.48021 -84.71073 38150 ft 470 kts 283°
2026-04-28 16:47 27.49298 -84.78268 38144 ft 471 kts 284°
2026-04-28 16:48 27.50571 -84.85514 38137 ft 471 kts 283°
2026-04-28 16:48 27.51841 -84.92724 38141 ft 471 kts 284°
2026-04-28 16:49 27.53111 -84.99938 38143 ft 471 kts 284°
2026-04-28 16:49 27.54393 -85.07204 38141 ft 471 kts 284°
2026-04-28 16:50 27.55658 -85.14411 38150 ft 471 kts 284°
2026-04-28 16:50 27.56917 -85.21630 38155 ft 471 kts 284°
2026-04-28 16:51 27.58176 -85.28881 38146 ft 470 kts 284°
2026-04-28 16:51 27.59693 -85.36028 38150 ft 468 kts 289°
2026-04-28 16:52 27.61681 -85.42966 38153 ft 466 kts 291°
2026-04-28 16:52 27.63755 -85.49905 38151 ft 466 kts 291°
2026-04-28 16:53 27.65815 -85.56792 38149 ft 466 kts 291°
2026-04-28 16:53 27.67885 -85.63718 38149 ft 465 kts 291°
2026-04-28 16:54 27.69940 -85.70644 38149 ft 464 kts 291°
2026-04-28 16:54 27.71974 -85.77506 38145 ft 464 kts 291°
2026-04-28 16:55 27.74026 -85.84426 38146 ft 464 kts 291°
2026-04-28 16:55 27.76069 -85.91325 38143 ft 464 kts 291°
2026-04-28 16:56 27.78111 -85.98236 38145 ft 464 kts 291°
2026-04-28 16:56 27.80138 -86.05109 38146 ft 462 kts 291°
2026-04-28 16:57 27.82167 -86.11989 38142 ft 462 kts 291°
2026-04-28 16:57 27.84192 -86.18879 38143 ft 461 kts 292°
2026-04-28 16:58 27.86200 -86.25721 38142 ft 461 kts 292°
2026-04-28 16:58 27.88217 -86.32612 38141 ft 460 kts 292°
2026-04-28 16:59 27.90214 -86.39447 38144 ft 460 kts 292°
2026-04-28 16:59 27.92200 -86.46257 38141 ft 459 kts 292°
2026-04-28 17:00 27.94205 -86.53131 38141 ft 458 kts 292°
2026-04-28 17:00 27.96185 -86.59934 38140 ft 458 kts 292°
2026-04-28 17:01 27.98174 -86.66777 38145 ft 458 kts 292°
2026-04-28 17:01 28.00143 -86.73604 38144 ft 457 kts 292°
2026-04-28 17:02 28.02120 -86.80405 38147 ft 457 kts 292°
2026-04-28 17:02 28.04135 -86.87219 38149 ft 456 kts 293°
2026-04-28 17:03 28.07157 -86.97402 38144 ft 455 kts 293°
2026-04-28 17:03 28.09158 -87.04150 38133 ft 455 kts 293°
2026-04-28 17:04 28.12218 -87.14401 38137 ft 456 kts 293°
2026-04-28 17:05 28.15238 -87.24555 38135 ft 455 kts 293°
2026-04-28 17:06 28.18240 -87.34745 38136 ft 454 kts 294°
2026-04-28 17:06 28.21226 -87.44927 38141 ft 453 kts 294°
2026-04-28 17:07 28.23207 -87.51700 38132 ft 453 kts 294°
2026-04-28 17:07 28.25176 -87.58463 38136 ft 452 kts 294°
2026-04-28 17:08 28.27144 -87.65215 38132 ft 451 kts 293°
2026-04-28 17:08 28.29091 -87.71941 38141 ft 451 kts 293°
2026-04-28 17:09 28.31047 -87.78709 38141 ft 450 kts 293°
2026-04-28 17:09 28.32995 -87.85431 38135 ft 450 kts 293°
2026-04-28 17:10 28.34950 -87.92181 38141 ft 448 kts 294°
2026-04-28 17:10 28.36880 -87.98882 38135 ft 450 kts 294°
2026-04-28 17:11 28.39043 -88.05524 38140 ft 445 kts 298°
2026-04-28 17:11 28.41525 -88.11942 38143 ft 443 kts 298°
2026-04-28 17:12 28.44012 -88.18308 38139 ft 443 kts 299°
2026-04-28 17:12 28.46507 -88.24683 38143 ft 442 kts 299°
2026-04-28 17:13 28.48995 -88.31040 38141 ft 442 kts 299°
2026-04-28 17:13 28.51493 -88.37437 38143 ft 441 kts 298°
2026-04-28 17:14 28.53972 -88.43792 38140 ft 440 kts 299°
2026-04-28 17:14 28.56435 -88.50126 38144 ft 439 kts 299°
2026-04-28 17:15 28.58888 -88.56438 38141 ft 437 kts 299°
2026-04-28 17:15 28.61338 -88.62753 38141 ft 437 kts 299°
2026-04-28 17:16 28.63773 -88.69062 38142 ft 437 kts 298°
2026-04-28 17:16 28.66221 -88.75413 38137 ft 437 kts 298°
2026-04-28 17:17 28.68652 -88.81724 38142 ft 435 kts 298°
2026-04-28 17:17 28.71073 -88.88016 38139 ft 434 kts 298°
2026-04-28 17:18 28.73485 -88.94281 38141 ft 433 kts 298°
2026-04-28 17:18 28.75883 -89.00530 38141 ft 432 kts 298°
2026-04-28 17:19 28.78294 -89.06816 38140 ft 431 kts 298°
2026-04-28 17:19 28.80685 -89.13066 38137 ft 431 kts 298°
2026-04-28 17:20 28.82672 -89.18267 38137 ft 429 kts 298°
2026-04-28 17:20 28.85435 -89.25489 38134 ft 427 kts 297°
2026-04-28 17:21 28.87801 -89.31704 38127 ft 427 kts 297°
2026-04-28 17:22 28.91327 -89.40980 38129 ft 425 kts 298°
2026-04-28 17:22 28.93682 -89.47188 38123 ft 425 kts 297°
2026-04-28 17:23 28.97188 -89.56434 38120 ft 423 kts 297°
2026-04-28 17:23 28.99517 -89.62601 38117 ft 422 kts 298°
2026-04-28 17:24 29.01830 -89.68739 38113 ft 423 kts 297°
2026-04-28 17:24 29.04127 -89.74863 38115 ft 421 kts 297°
2026-04-28 17:25 29.07597 -89.84087 38118 ft 421 kts 297°
2026-04-28 17:26 29.09908 -89.90237 38125 ft 421 kts 297°
2026-04-28 17:26 29.12221 -89.96322 38109 ft 419 kts 297°
2026-04-28 17:27 29.14532 -90.02465 38098 ft 421 kts 297°
2026-04-28 17:27 29.16581 -90.08747 38093 ft 423 kts 292°
2026-04-28 17:28 29.18162 -90.15187 38092 ft 425 kts 288°
2026-04-28 17:28 29.19925 -90.25146 38094 ft 427 kts 287°
2026-04-28 17:29 29.21062 -90.31824 38096 ft 427 kts 287°
2026-04-28 17:30 29.22746 -90.41811 38093 ft 428 kts 286°
2026-04-28 17:30 29.24419 -90.51812 38090 ft 427 kts 287°
2026-04-28 17:31 29.26086 -90.61797 38087 ft 427 kts 286°
2026-04-28 17:32 29.27734 -90.71815 38097 ft 428 kts 286°
2026-04-28 17:32 29.28830 -90.78500 38094 ft 429 kts 286°
2026-04-28 17:33 29.29925 -90.85151 38091 ft 428 kts 286°
2026-04-28 17:33 29.30837 -90.90730 38088 ft 426 kts 286°
2026-04-28 17:34 29.32102 -90.98481 38093 ft 427 kts 286°
2026-04-28 17:34 29.33192 -91.05163 38087 ft 427 kts 285°
2026-04-28 17:35 29.34272 -91.11837 38083 ft 427 kts 287°
2026-04-28 17:35 29.35355 -91.18486 38087 ft 426 kts 285°
2026-04-28 17:36 29.36425 -91.25136 38081 ft 427 kts 286°
2026-04-28 17:36 29.37496 -91.31802 38083 ft 426 kts 285°
2026-04-28 17:37 29.38558 -91.38435 38076 ft 425 kts 285°
2026-04-28 17:37 29.39625 -91.45099 38072 ft 425 kts 286°
2026-04-28 17:38 29.40677 -91.51728 38072 ft 425 kts 286°
2026-04-28 17:38 29.41740 -91.58401 38070 ft 424 kts 286°
2026-04-28 17:39 29.42783 -91.65036 38069 ft 424 kts 285°
2026-04-28 17:40 29.44348 -91.74987 38063 ft 424 kts 285°
2026-04-28 17:40 29.45384 -91.81634 38063 ft 423 kts 285°
2026-04-28 17:41 29.46409 -91.88238 38062 ft 422 kts 285°
2026-04-28 17:41 29.47437 -91.94859 38060 ft 422 kts 284°
2026-04-28 17:42 29.48468 -92.01461 38056 ft 422 kts 285°
2026-04-28 17:42 29.49491 -92.08111 38058 ft 422 kts 285°
2026-04-28 17:43 29.50516 -92.14761 38056 ft 422 kts 285°
2026-04-28 17:43 29.51534 -92.21349 38055 ft 421 kts 284°
2026-04-28 17:44 29.52553 -92.27987 38054 ft 420 kts 284°
2026-04-28 17:44 29.53557 -92.34589 38048 ft 421 kts 285°
2026-04-28 17:45 29.54564 -92.41180 38053 ft 421 kts 284°
2026-04-28 17:45 29.55567 -92.47813 38052 ft 421 kts 284°
2026-04-28 17:46 29.56566 -92.54409 38051 ft 422 kts 284°
2026-04-28 17:46 29.57562 -92.61053 38051 ft 422 kts 285°
2026-04-28 17:47 29.58560 -92.67683 38054 ft 423 kts 284°
2026-04-28 17:47 29.59544 -92.74283 38049 ft 421 kts 284°
2026-04-28 17:48 29.60535 -92.80911 38049 ft 422 kts 284°
2026-04-28 17:48 29.61530 -92.87525 38043 ft 421 kts 284°
2026-04-28 17:49 29.62506 -92.94163 38044 ft 422 kts 284°
2026-04-28 17:49 29.63463 -93.00810 38045 ft 422 kts 284°
2026-04-28 17:50 29.64425 -93.07440 38040 ft 421 kts 284°
2026-04-28 17:50 29.65382 -93.14047 38041 ft 421 kts 283°
2026-04-28 17:51 29.66347 -93.20700 38038 ft 421 kts 284°
2026-04-28 17:51 29.67296 -93.27306 38035 ft 419 kts 283°
2026-04-28 17:52 29.68254 -93.33923 38037 ft 420 kts 284°
2026-04-28 17:52 29.69689 -93.43852 38035 ft 420 kts 283°
2026-04-28 17:53 29.70635 -93.50459 38031 ft 420 kts 283°
2026-04-28 17:53 29.71580 -93.57094 38032 ft 421 kts 283°
2026-04-28 17:54 29.72521 -93.63690 38027 ft 421 kts 284°
2026-04-28 17:54 29.73463 -93.70342 38028 ft 420 kts 283°
2026-04-28 17:55 29.74378 -93.76939 38030 ft 420 kts 283°
2026-04-28 17:55 29.75318 -93.83602 38026 ft 421 kts 283°
2026-04-28 17:56 29.76247 -93.90209 38028 ft 419 kts 283°
2026-04-28 17:56 29.77172 -93.96811 38033 ft 419 kts 283°
2026-04-28 17:57 29.78085 -94.03394 38027 ft 420 kts 283°
2026-04-28 17:57 29.79003 -94.10010 38027 ft 419 kts 283°
2026-04-28 17:58 29.79926 -94.16650 38025 ft 419 kts 283°
2026-04-28 17:58 29.80834 -94.23254 38020 ft 418 kts 282°
2026-04-28 17:59 29.81749 -94.29868 38019 ft 418 kts 282°
2026-04-28 17:59 29.82656 -94.36458 38018 ft 419 kts 282°
2026-04-28 18:00 29.83558 -94.43052 38008 ft 419 kts 283°
2026-04-28 18:00 29.84446 -94.49659 38008 ft 418 kts 282°
2026-04-28 18:01 29.85319 -94.56278 38012 ft 419 kts 282°
2026-04-28 18:01 29.86199 -94.62878 38007 ft 417 kts 282°
2026-04-28 18:02 29.87068 -94.69462 38000 ft 418 kts 282°
2026-04-28 18:02 29.87949 -94.76060 38004 ft 418 kts 282°
2026-04-28 18:03 29.88808 -94.82520 38013 ft 417 kts 282°
2026-04-28 18:03 29.89677 -94.89083 38018 ft 415 kts 282°
2026-04-28 18:04 29.90545 -94.95643 38015 ft 416 kts 282°
2026-04-28 18:04 29.91416 -95.02251 38019 ft 416 kts 282°
2026-04-28 18:05 29.92141 -95.07712 38023 ft 415 kts 282°
2026-04-28 18:05 29.93150 -95.15399 38021 ft 414 kts 281°
2026-04-28 18:06 29.94012 -95.21922 38023 ft 413 kts 282°
2026-04-28 18:06 29.95177 -95.28398 38014 ft 413 kts 287°
2026-04-28 18:07 29.96805 -95.34736 38007 ft 412 kts 290°
2026-04-28 18:07 29.98872 -95.40904 38012 ft 412 kts 294°
2026-04-28 18:08 30.01353 -95.46822 38004 ft 412 kts 297°
2026-04-28 18:08 30.04061 -95.52659 38001 ft 411 kts 298°
2026-04-28 18:09 30.06773 -95.58469 38000 ft 410 kts 298°
2026-04-28 18:09 30.09478 -95.64266 37994 ft 410 kts 297°
2026-04-28 18:10 30.12186 -95.70055 37994 ft 410 kts 297°
2026-04-28 18:10 30.14881 -95.75808 37983 ft 409 kts 298°
2026-04-28 18:11 30.17567 -95.81574 37982 ft 409 kts 297°
2026-04-28 18:11 30.20262 -95.87372 37983 ft 409 kts 297°
2026-04-28 18:12 30.22962 -95.93175 37970 ft 409 kts 297°
2026-04-28 18:12 30.25642 -95.98949 37967 ft 408 kts 297°
2026-04-28 18:13 30.28321 -96.04745 37956 ft 409 kts 297°
2026-04-28 18:13 30.30796 -96.10632 37963 ft 408 kts 295°
2026-04-28 18:14 30.33253 -96.16560 37968 ft 408 kts 295°
2026-04-28 18:14 30.35697 -96.22459 37965 ft 408 kts 294°
2026-04-28 18:15 30.38150 -96.28388 37967 ft 407 kts 294°
2026-04-28 18:15 30.40594 -96.34297 37968 ft 407 kts 295°
2026-04-28 18:16 30.43026 -96.40193 37966 ft 406 kts 295°
2026-04-28 18:16 30.45453 -96.46074 37962 ft 406 kts 294°
2026-04-28 18:17 30.47877 -96.51971 37969 ft 406 kts 295°
2026-04-28 18:17 30.50310 -96.57896 37966 ft 406 kts 295°
2026-04-28 18:18 30.52729 -96.63795 37970 ft 406 kts 294°
2026-04-28 18:18 30.54739 -96.68710 37969 ft 406 kts 294°
2026-04-28 18:19 30.57549 -96.75614 37968 ft 405 kts 294°
2026-04-28 18:19 30.59965 -96.81542 37962 ft 405 kts 294°
2026-04-28 18:20 30.62364 -96.87425 37956 ft 404 kts 294°
2026-04-28 18:20 30.64756 -96.93312 37951 ft 403 kts 294°
2026-04-28 18:21 30.67149 -96.99208 37945 ft 403 kts 294°
2026-04-28 18:21 30.69529 -97.05074 37946 ft 402 kts 294°
2026-04-28 18:22 30.71916 -97.10965 37952 ft 403 kts 293°
2026-04-28 18:22 30.74290 -97.16842 37951 ft 404 kts 293°
2026-04-28 18:23 30.76674 -97.22745 37949 ft 404 kts 294°
2026-04-28 18:23 30.79065 -97.28666 37950 ft 404 kts 293°
2026-04-28 18:24 30.81055 -97.33611 37945 ft 404 kts 293°
2026-04-28 18:24 30.83815 -97.40494 37953 ft 403 kts 293°
2026-04-28 18:25 30.86183 -97.46395 37952 ft 404 kts 293°
2026-04-28 18:26 30.89730 -97.55249 37946 ft 403 kts 293°
2026-04-28 18:26 30.92096 -97.61176 37954 ft 403 kts 293°
2026-04-28 18:27 30.94468 -97.67136 37968 ft 404 kts 292°
2026-04-28 18:27 30.96800 -97.73025 37968 ft 403 kts 292°
2026-04-28 18:28 30.99151 -97.78951 37972 ft 402 kts 292°
2026-04-28 18:28 31.01508 -97.84891 37972 ft 404 kts 291°
2026-04-28 18:29 31.03868 -97.90860 37970 ft 404 kts 292°
2026-04-28 18:29 31.06214 -97.96799 37970 ft 402 kts 292°
2026-04-28 18:30 31.08554 -98.02710 37969 ft 403 kts 292°
2026-04-28 18:30 31.10903 -98.08669 37976 ft 403 kts 293°
2026-04-28 18:31 31.13272 -98.14598 37972 ft 403 kts 292°
2026-04-28 18:31 31.15635 -98.20564 37981 ft 404 kts 292°
2026-04-28 18:32 31.17957 -98.26475 37979 ft 402 kts 292°
2026-04-28 18:32 31.20297 -98.32432 37982 ft 403 kts 292°
2026-04-28 18:33 31.22609 -98.38337 37982 ft 402 kts 292°
2026-04-28 18:33 31.24944 -98.44315 37984 ft 402 kts 291°
2026-04-28 18:34 31.27251 -98.50232 37980 ft 402 kts 292°
2026-04-28 18:34 31.29562 -98.56183 37979 ft 401 kts 292°
2026-04-28 18:35 31.31876 -98.62132 37976 ft 402 kts 291°
2026-04-28 18:35 31.34178 -98.68083 37974 ft 402 kts 291°
2026-04-28 18:36 31.36467 -98.74026 37970 ft 402 kts 291°
2026-04-28 18:36 31.38772 -98.80013 37964 ft 402 kts 291°
2026-04-28 18:37 31.41063 -98.85948 37962 ft 401 kts 291°
2026-04-28 18:37 31.43341 -98.91869 37957 ft 401 kts 291°
2026-04-28 18:38 31.45630 -98.97814 37965 ft 401 kts 291°
2026-04-28 18:38 31.47913 -99.03773 37964 ft 401 kts 291°
2026-04-28 18:39 31.50200 -99.09724 37963 ft 401 kts 291°
2026-04-28 18:39 31.52470 -99.15668 37961 ft 402 kts 291°
2026-04-28 18:40 31.54751 -99.21635 37960 ft 402 kts 290°
2026-04-28 18:40 31.57029 -99.27612 37966 ft 401 kts 291°
2026-04-28 18:41 31.59287 -99.33550 37973 ft 401 kts 291°
2026-04-28 18:41 31.61559 -99.39524 37973 ft 401 kts 291°
2026-04-28 18:42 31.63811 -99.45470 37979 ft 401 kts 291°
2026-04-28 18:42 31.66085 -99.51470 37986 ft 401 kts 291°
2026-04-28 18:43 31.68331 -99.57417 37983 ft 400 kts 290°
2026-04-28 18:43 31.70577 -99.63372 37986 ft 401 kts 291°
2026-04-28 18:44 31.72827 -99.69354 37990 ft 401 kts 290°
2026-04-28 18:44 31.76190 -99.78320 37990 ft 401 kts 290°
2026-04-28 18:45 31.78422 -99.84297 37983 ft 400 kts 290°
2026-04-28 18:45 31.80663 -99.90269 37980 ft 401 kts 290°
2026-04-28 18:46 31.82904 -99.96276 37977 ft 401 kts 290°
2026-04-28 18:46 31.85123 -100.02226 37979 ft 400 kts 290°
2026-04-28 18:47 31.87349 -100.08201 37974 ft 401 kts 290°
2026-04-28 18:47 31.89592 -100.14224 37977 ft 401 kts 289°
2026-04-28 18:48 31.91814 -100.20228 37981 ft 401 kts 290°
2026-04-28 18:48 31.94036 -100.26224 37982 ft 401 kts 289°
2026-04-28 18:49 31.95887 -100.31221 37982 ft 401 kts 289°
2026-04-28 18:49 31.98473 -100.38236 37990 ft 402 kts 289°
2026-04-28 18:50 32.00699 -100.44269 37994 ft 402 kts 289°
2026-04-28 18:50 32.02923 -100.50311 37991 ft 402 kts 289°
2026-04-28 18:51 32.05130 -100.56316 37996 ft 401 kts 289°
2026-04-28 18:51 32.07334 -100.62323 37996 ft 402 kts 289°
2026-04-28 18:52 32.09542 -100.68375 38002 ft 401 kts 289°
2026-04-28 18:52 32.11753 -100.74393 38007 ft 401 kts 289°
2026-04-28 18:53 32.13973 -100.80418 38008 ft 401 kts 288°
2026-04-28 18:53 32.16189 -100.86475 38007 ft 401 kts 288°
2026-04-28 18:54 32.17757 -100.90778 38018 ft 402 kts 288°
2026-04-28 18:54 32.19951 -100.96818 38024 ft 401 kts 288°
2026-04-28 18:55 32.21785 -101.01874 38021 ft 401 kts 288°
2026-04-28 18:55 32.24332 -101.08916 38025 ft 401 kts 288°
2026-04-28 18:56 32.26519 -101.14965 38020 ft 402 kts 288°
2026-04-28 18:56 32.28717 -101.21069 38025 ft 401 kts 288°
2026-04-28 18:57 32.30895 -101.27099 38025 ft 400 kts 288°
2026-04-28 18:57 32.33068 -101.33143 38030 ft 401 kts 288°
2026-04-28 18:58 32.35256 -101.39227 38025 ft 400 kts 287°
2026-04-28 18:58 32.37426 -101.45279 38029 ft 400 kts 287°
2026-04-28 18:59 32.39469 -101.51389 38036 ft 398 kts 286°
2026-04-28 18:59 32.41405 -101.57491 38035 ft 398 kts 286°
2026-04-28 19:00 32.43349 -101.63621 38044 ft 398 kts 286°
2026-04-28 19:00 32.45295 -101.69785 38049 ft 398 kts 285°
2026-04-28 19:01 32.47228 -101.75915 38057 ft 398 kts 285°
2026-04-28 19:01 32.49162 -101.82037 38061 ft 399 kts 286°
2026-04-28 19:02 32.51092 -101.88166 38055 ft 398 kts 285°
2026-04-28 19:02 32.53018 -101.94289 38051 ft 397 kts 285°
2026-04-28 19:03 32.54952 -102.00435 38054 ft 398 kts 285°
2026-04-28 19:03 32.56873 -102.06567 38057 ft 398 kts 285°
2026-04-28 19:04 32.58794 -102.12697 38060 ft 399 kts 284°
2026-04-28 19:04 32.60726 -102.18896 38061 ft 400 kts 284°
2026-04-28 19:05 32.62651 -102.25073 38063 ft 400 kts 285°
2026-04-28 19:05 32.64580 -102.31275 38070 ft 400 kts 285°
2026-04-28 19:06 32.66182 -102.36434 38065 ft 400 kts 284°
2026-04-28 19:06 32.68423 -102.43675 38080 ft 400 kts 285°
2026-04-28 19:07 32.70340 -102.49868 38083 ft 399 kts 285°
2026-04-28 19:07 32.72252 -102.56046 38090 ft 399 kts 284°
2026-04-28 19:08 32.74160 -102.62262 38110 ft 398 kts 285°
2026-04-28 19:08 32.76048 -102.68414 38105 ft 398 kts 285°
2026-04-28 19:09 32.77935 -102.74584 38098 ft 398 kts 284°
2026-04-28 19:09 32.79829 -102.80770 38091 ft 398 kts 284°
2026-04-28 19:10 32.81720 -102.86955 38092 ft 399 kts 284°
2026-04-28 19:10 32.83617 -102.93201 38092 ft 399 kts 285°
2026-04-28 19:11 32.85501 -102.99399 38100 ft 399 kts 284°
2026-04-28 19:11 32.87384 -103.05597 38097 ft 399 kts 284°
2026-04-28 19:12 32.89258 -103.11784 38100 ft 399 kts 284°
2026-04-28 19:12 32.91139 -103.18005 38102 ft 400 kts 285°
2026-04-28 19:13 32.93021 -103.24237 38107 ft 401 kts 284°
2026-04-28 19:13 32.94890 -103.30459 38115 ft 400 kts 285°
2026-04-28 19:14 32.96776 -103.36716 38111 ft 401 kts 284°
2026-04-28 19:14 32.98645 -103.42961 38130 ft 401 kts 284°
2026-04-28 19:15 33.00509 -103.49191 38133 ft 400 kts 284°
2026-04-28 19:15 33.02072 -103.54414 38144 ft 401 kts 284°
2026-04-28 19:16 33.04247 -103.61718 38155 ft 401 kts 284°
2026-04-28 19:16 33.06111 -103.67979 38150 ft 401 kts 283°
2026-04-28 19:17 33.07962 -103.74246 38152 ft 400 kts 284°
2026-04-28 19:17 33.09815 -103.80501 38147 ft 402 kts 283°
2026-04-28 19:18 33.11689 -103.86778 38145 ft 402 kts 284°
2026-04-28 19:18 33.13560 -103.93042 38132 ft 405 kts 283°
2026-04-28 19:19 33.15433 -103.99356 38127 ft 405 kts 283°
2026-04-28 19:19 33.17285 -104.05669 38134 ft 403 kts 284°
2026-04-28 19:20 33.19139 -104.11979 38124 ft 402 kts 284°
2026-04-28 19:20 33.20985 -104.18282 38129 ft 403 kts 283°
2026-04-28 19:21 33.22836 -104.24620 38117 ft 403 kts 284°
2026-04-28 19:21 33.24672 -104.30927 38116 ft 402 kts 284°
2026-04-28 19:22 33.26211 -104.36202 38116 ft 401 kts 283°
2026-04-28 19:22 33.28341 -104.43531 38106 ft 402 kts 283°
2026-04-28 19:23 33.30166 -104.49815 38101 ft 401 kts 284°
2026-04-28 19:23 33.31993 -104.56132 38103 ft 400 kts 284°
2026-04-28 19:24 33.33915 -104.62405 38106 ft 404 kts 287°
2026-04-28 19:24 33.36174 -104.68540 38120 ft 404 kts 288°
2026-04-28 19:25 33.38480 -104.74627 38144 ft 402 kts 288°
2026-04-28 19:25 33.40813 -104.80736 38144 ft 403 kts 287°
2026-04-28 19:26 33.43119 -104.86788 38163 ft 404 kts 287°
2026-04-28 19:26 33.45456 -104.92932 38170 ft 403 kts 288°
2026-04-28 19:27 33.47781 -104.99046 38191 ft 401 kts 287°
2026-04-28 19:27 33.50114 -105.05180 38200 ft 402 kts 288°
2026-04-28 19:28 33.52420 -105.11265 38196 ft 401 kts 288°
2026-04-28 19:28 33.54722 -105.17333 38213 ft 402 kts 287°
2026-04-28 19:29 33.56638 -105.22417 38221 ft 403 kts 288°
2026-04-28 19:29 33.59323 -105.29535 38228 ft 402 kts 287°
2026-04-28 19:30 33.61606 -105.35591 38216 ft 402 kts 288°
2026-04-28 19:30 33.63910 -105.41724 38221 ft 403 kts 288°
2026-04-28 19:31 33.66208 -105.47845 38224 ft 404 kts 287°
2026-04-28 19:31 33.68507 -105.53996 38231 ft 403 kts 288°
2026-04-28 19:32 33.70809 -105.60144 38227 ft 404 kts 287°
2026-04-28 19:32 33.73100 -105.66283 38252 ft 405 kts 287°
2026-04-28 19:33 33.75401 -105.72475 38247 ft 405 kts 286°
2026-04-28 19:33 33.77681 -105.78629 38250 ft 403 kts 287°
2026-04-28 19:34 33.79973 -105.84804 38255 ft 406 kts 287°
2026-04-28 19:34 33.82258 -105.90986 38250 ft 407 kts 286°
2026-04-28 19:35 33.84559 -105.97218 38259 ft 406 kts 287°
2026-04-28 19:35 33.86845 -106.03411 38250 ft 406 kts 287°
2026-04-28 19:36 33.89129 -106.09618 38257 ft 405 kts 288°
2026-04-28 19:36 33.91398 -106.15784 38261 ft 404 kts 286°
2026-04-28 19:37 33.93279 -106.20914 38263 ft 404 kts 287°
2026-04-28 19:37 33.95931 -106.28158 38260 ft 403 kts 287°
2026-04-28 19:38 33.98197 -106.34345 38259 ft 404 kts 286°
2026-04-28 19:38 34.00440 -106.40498 38248 ft 404 kts 287°
2026-04-28 19:39 34.02696 -106.46712 38243 ft 402 kts 287°
2026-04-28 19:39 34.04936 -106.52859 38230 ft 404 kts 287°
2026-04-28 19:40 34.07176 -106.59029 38228 ft 404 kts 286°
2026-04-28 19:40 34.09429 -106.65263 38224 ft 404 kts 285°
2026-04-28 19:41 34.11678 -106.71466 38219 ft 405 kts 285°
2026-04-28 19:41 34.13939 -106.77682 38212 ft 403 kts 286°
2026-04-28 19:42 34.16174 -106.83853 38196 ft 401 kts 287°
2026-04-28 19:42 34.18025 -106.88990 38201 ft 403 kts 287°
2026-04-28 19:43 34.20616 -106.96207 38201 ft 402 kts 286°
2026-04-28 19:43 34.22838 -107.02414 38215 ft 401 kts 286°
2026-04-28 19:44 34.25055 -107.08614 38219 ft 403 kts 286°
2026-04-28 19:44 34.27265 -107.14811 38235 ft 402 kts 286°
2026-04-28 19:45 34.29467 -107.21012 38238 ft 403 kts 287°
2026-04-28 19:45 34.31675 -107.27208 38245 ft 404 kts 286°
2026-04-28 19:46 34.33879 -107.33443 38243 ft 404 kts 287°
2026-04-28 19:46 34.36102 -107.39714 38253 ft 407 kts 286°
2026-04-28 19:47 34.38320 -107.46005 38273 ft 406 kts 286°
2026-04-28 19:47 34.40531 -107.52272 38264 ft 407 kts 285°
2026-04-28 19:48 34.42732 -107.58544 38279 ft 407 kts 286°
2026-04-28 19:48 34.44949 -107.64857 38286 ft 408 kts 285°
2026-04-28 19:49 34.47158 -107.71192 38295 ft 409 kts 285°
2026-04-28 19:49 34.49366 -107.77522 38299 ft 409 kts 286°
2026-04-28 19:50 34.52690 -107.87054 38303 ft 410 kts 286°
2026-04-28 19:51 34.54895 -107.93389 38311 ft 410 kts 285°
2026-04-28 19:51 34.57108 -107.99770 38314 ft 412 kts 286°
2026-04-28 19:52 34.59314 -108.06140 38313 ft 411 kts 285°
2026-04-28 19:52 34.61514 -108.12503 38313 ft 412 kts 285°
2026-04-28 19:53 34.63732 -108.18937 38311 ft 414 kts 285°
2026-04-28 19:53 34.65935 -108.25342 38311 ft 411 kts 286°
2026-04-28 19:54 34.68144 -108.31764 38297 ft 413 kts 285°
2026-04-28 19:54 34.70347 -108.38193 38297 ft 412 kts 285°
2026-04-28 19:55 34.72551 -108.44624 38292 ft 414 kts 285°
2026-04-28 19:55 34.74749 -108.51053 38295 ft 414 kts 285°
2026-04-28 19:56 34.76956 -108.57531 38284 ft 414 kts 287°
2026-04-28 19:56 34.79156 -108.63987 38283 ft 415 kts 285°
2026-04-28 19:57 34.81345 -108.70461 38284 ft 415 kts 284°
2026-04-28 19:57 34.83538 -108.76937 38275 ft 415 kts 285°
2026-04-28 19:58 34.85730 -108.83424 38271 ft 415 kts 285°
2026-04-28 19:58 34.87914 -108.89877 38255 ft 416 kts 285°
2026-04-28 19:59 34.89372 -108.94204 38254 ft 415 kts 285°